Wind_Speed
26 24 24 26 25 25 26 27 29 30 30 31 31 31 30 28 26 25 24 23 23 22 22 22 21 22 21 21 20 20 19 20 21 22 23 22 18 16 14 14 13 12 13 13 13 14 13 12 12 12 11 9 8 9 9 7 8 5 3 3 1 3 3 5 7 7 5 1 5 9 14 11 4 8 10 6 5 7 10 11 9 11 13 8 5 4 8 14
27 25 24 26 26 24 25 28 30 30 30 31 31 31 30 28 26 25 24 22 22 22 22 21 21 21 21 20 20 18 18 20 20 23 24 20 17 17 15 15 14 12 13 14 14 14 14 13 14 14 12 9 7 8 9 6 7 3 3 3 3 5 4 6 7 8 5 0 6 10 12 11 5 9 12 5 4 6 8 9 9 11 14 12 8 8 9 14
27 27 25 26 26 25 25 28 30 30 31 31 31 31 30 28 27 25 24 22 22 23 22 21 21 21 21 20 18 16 17 18 19 23 23 19 17 17 16 16 15 12 13 14 13 13 13 13 14 15 13 9 6 8 8 5 5 2 4 3 5 7 4 5 6 5 5 2 6 10 10 9 6 9 11 6 4 4 7 10 10 12 15 14 12 10 11 15
27 28 27 25 26 25 24 26 29 30 30 30 31 31 30 28 26 25 23 23 23 23 22 21 21 21 21 19 16 15 15 12 17 24 21 18 18 17 16 17 15 13 13 14 13 13 12 13 15 15 13 7 5 7 6 5 5 2 4 4 5 6 2 4 5 3 5 5 6 10 8 6 7 10 10 7 5 3 11 16 16 15 14 14 14 12 12 16
26 26 27 26 26 25 24 26 28 30 30 31 31 30 29 26 25 25 24 24 24 23 22 21 20 21 20 18 15 15 12 4 11 22 19 18 18 17 16 17 16 13 14 15 14 14 13 13 16 15 10 5 5 5 3 5 6 3 2 3 3 6 2 1 3 2 4 7 8 11 8 6 8 9 10 10 7 5 9 13 16 15 13 12 13 14 14 17
26 24 25 26 26 25 25 27 28 30 31 31 29 28 27 26 26 25 25 25 24 23 22 21 20 20 19 17 15 16 14 3 4 16 19 18 19 17 17 17 16 14 15 15 15 16 14 14 15 14 9 5 6 4 3 7 6 3 2 3 4 5 1 1 1 1 3 9 11 11 8 8 8 6 8 13 14 10 4 5 9 14 14 14 13 14 15 17
27 24 25 25 25 26 26 28 29 30 30 29 28 28 27 27 27 25 26 25 24 23 22 21 20 20 18 17 16 16 18 8 2 12 19 18 19 18 18 17 16 15 15 16 16 17 15 15 15 15 10 5 5 4 4 8 5 3 2 2 5 3 0 1 0 1 4 8 10 10 8 6 7 6 4 13 20 16 9 5 4 8 14 16 15 15 15 15
26 24 24 24 24 25 27 27 29 30 29 29 28 28 28 28 27 26 26 24 23 22 21 21 20 20 18 17 18 14 18 14 3 10 19 18 19 18 17 17 17 15 15 16 16 18 16 15 16 14 7 3 6 7 6 7 1 1 3 4 5 3 2 2 1 3 3 5 7 7 6 3 5 5 5 13 18 15 16 14 9 8 11 16 17 17 16 16
23 21 21 22 22 23 26 27 28 28 28 29 28 28 29 28 27 26 25 24 22 21 20 20 19 20 18 17 18 10 16 18 5 8 18 18 18 17 17 16 16 15 15 15 15 18 16 14 17 12 5 5 8 8 9 7 2 4 6 7 6 3 2 3 2 4 4 5 6 5 3 1 2 3 8 15 16 15 16 17 16 12 10 14 18 18 17 17
22 20 19 20 21 22 24 27 28 28 28 28 28 29 29 28 27 26 25 23 21 21 20 20 19 19 18 19 16 6 14 19 8 9 18 20 17 15 16 15 14 14 14 15 16 17 15 12 15 11 5 7 8 6 9 6 3 6 9 9 6 3 2 2 3 3 4 4 3 4 2 0 2 1 5 7 6 9 14 16 17 16 12 12 15 18 18 17
21 20 19 19 21 21 22 24 26 28 28 27 28 28 28 28 27 25 23 22 21 21 20 20 19 18 18 19 16 8 12 17 9 10 18 19 17 14 14 13 12 13 13 14 15 16 14 10 13 12 3 5 8 6 7 4 2 9 14 9 5 3 2 2 2 3 3 3 1 2 1 2 2 2 8 8 3 3 7 14 16 17 15 12 13 16 17 17
21 21 20 20 20 20 21 22 24 26 26 27 26 26 26 26 25 24 22 21 20 20 20 20 19 18 18 17 18 14 10 13 10 10 17 19 17 15 13 12 11 11 10 11 12 12 11 9 12 11 4 7 8 4 5 5 7 10 10 4 5 6 3 3 2 2 1 2 2 3 1 5 3 8 10 7 6 4 3 10 16 18 17 15 14 15 17 17
20 21 20 20 20 20 21 22 23 24 25 26 26 25 25 24 23 22 21 20 20 20 19 19 18 17 16 13 18 18 10 10 11 10 17 19 17 16 13 11 10 9 9 9 9 10 10 9 11 10 8 9 6 5 8 7 9 7 4 3 2 6 3 4 3 1 2 2 2 3 2 7 7 12 11 6 8 7 6 9 13 16 18 19 19 18 19 18
18 20 20 20 20 21 21 22 24 25 25 25 25 24 24 23 22 21 19 18 19 18 18 18 17 17 16 11 13 18 13 10 11 11 16 19 17 17 14 11 9 7 8 9 9 10 10 9 10 10 8 8 9 11 7 5 5 3 2 2 1 1 4 5 3 2 4 1 2 4 1 7 9 9 6 9 12 11 13 13 12 14 16 18 20 21 21 20
15 18 20 20 20 21 21 23 23 24 26 25 25 23 22 22 21 20 18 17 17 17 17 17 17 15 12 9 10 15 16 12 11 13 16 19 18 16 15 12 9 7 7 8 9 10 10 9 9 9 8 10 13 10 4 4 4 3 2 1 3 3 5 7 3 1 3 2 1 5 2 7 9 7 1 3 7 9 14 15 14 16 16 17 19 21 21 20
14 16 20 21 21 22 22 22 23 24 25 25 24 23 21 20 20 19 18 17 16 16 16 16 18 14 6 7 9 12 17 15 11 14 17 18 18 15 14 12 9 7 6 7 9 11 10 9 9 9 9 10 9 6 5 3 3 4 2 3 2 3 3 4 2 2 1 2 1 2 3 4 4 5 1 1 1 1 5 9 10 12 14 14 16 18 19 18
14 15 18 21 22 22 23 22 23 24 25 25 24 22 21 19 18 18 18 17 16 15 16 15 16 12 4 7 10 11 16 17 13 14 17 17 17 15 13 11 9 8 8 8 10 11 11 9 9 7 5 5 3 5 5 0 3 2 2 2 3 3 2 2 2 4 3 2 1 2 2 7 7 8 7 5 5 7 8 9 9 10 12 12 13 15 16 17
14 14 17 21 22 22 23 22 23 24 24 24 23 22 20 18 17 17 17 18 17 15 13 14 14 7 7 12 11 10 17 18 13 14 17 18 16 14 13 11 9 10 10 9 9 10 8 5 6 4 3 3 2 5 5 5 5 5 2 3 2 2 3 3 3 2 3 2 2 1 3 9 11 13 17 17 12 13 16 16 17 17 17 17 17 19 19 20
15 15 16 20 22 23 23 23 23 23 24 24 23 22 19 17 16 15 18 20 19 11 5 14 19 6 3 13 15 11 16 17 14 14 18 18 16 14 12 10 11 13 12 7 5 6 6 4 5 3 2 3 5 6 7 8 8 8 6 5 5 4 4 5 4 4 1 3 3 4 5 8 10 11 17 22 15 12 17 19 20 21 21 22 23 24 24 25
17 16 16 19 22 23 23 23 23 23 24 24 25 25 19 17 12 8 17 22 18 9 1 15 25 6 4 12 19 14 15 16 14 15 18 18 17 15 12 12 13 11 8 5 4 3 4 4 3 5 7 7 7 6 6 5 6 7 5 4 4 4 3 3 3 5 1 3 3 3 4 8 11 11 15 24 18 13 19 21 23 24 23 25 25 26 26 26
18 16 17 18 20 23 23 24 24 24 24 24 29 25 19 21 12 6 16 16 14 10 1 11 26 9 4 11 21 17 16 14 13 16 18 18 18 14 11 11 9 5 2 3 5 3 4 5 7 7 7 7 6 6 7 6 6 5 6 5 2 2 3 2 1 4 3 1 2 3 4 9 11 11 16 21 14 12 19 20 23 26 25 27 28 28 28 27
19 17 17 17 20 22 22 24 23 24 25 27 32 24 18 26 17 12 18 9 11 13 3 9 24 12 1 9 19 18 16 11 10 17 18 19 19 13 10 8 6 4 1 4 6 3 3 5 8 6 6 8 7 6 8 7 6 5 4 5 2 2 2 3 3 4 4 1 3 3 5 9 11 10 15 18 14 17 21 20 23 25 27 30 30 30 30 30
19 17 16 17 19 21 22 23 23 25 28 30 32 22 18 26 16 13 17 5 7 12 5 9 21 14 4 10 17 16 14 9 9 16 18 19 19 13 11 8 5 5 3 4 6 5 4 6 6 8 10 10 6 4 8 7 4 4 4 5 3 2 1 1 2 4 4 2 1 2 4 8 8 7 10 13 14 18 19 20 22 23 26 28 28 28 28 29
18 16 16 17 18 20 21 23 24 28 30 30 30 22 20 25 16 14 14 3 2 7 4 9 17 16 9 9 15 14 11 9 10 17 20 20 18 11 10 8 6 5 4 6 8 7 5 4 3 10 7 8 7 2 6 6 2 1 3 6 4 3 4 3 1 1 3 3 3 2 4 6 5 5 7 6 5 10 11 13 17 18 20 22 23 23 22 22
18 17 16 16 16 18 21 22 26 30 32 32 29 22 22 24 18 16 11 4 1 3 2 8 11 13 12 10 14 14 10 8 9 17 22 21 18 10 6 7 5 4 4 5 7 5 4 1 7 10 4 5 8 4 5 7 4 2 4 6 6 7 7 3 2 3 4 4 3 4 3 5 5 5 7 5 6 8 8 8 15 17 16 18 22 23 21 20
19 18 18 18 16 18 21 22 27 32 32 33 28 22 23 23 19 18 8 4 1 2 3 8 7 10 13 10 14 14 7 5 8 18 23 20 18 11 6 5 2 2 5 6 5 2 1 2 5 7 6 6 6 4 6 6 6 2 4 6 7 7 8 6 5 4 1 2 2 3 2 4 6 5 7 5 8 10 9 8 13 16 14 15 19 21 22 20
22 21 20 19 16 21 25 22 28 34 32 32 28 21 23 24 20 16 5 5 2 3 6 7 6 11 13 11 17 13 3 6 9 15 22 19 16 11 7 4 2 2 4 5 3 1 2 4 4 5 6 6 6 5 6 7 8 3 3 6 8 8 8 7 6 5 2 3 4 4 3 2 5 6 6 6 6 10 10 8 11 14 13 10 12 15 16 13
24 23 22 20 17 23 28 22 28 36 31 30 28 21 22 25 20 12 5 2 3 5 6 6 7 11 13 16 20 9 4 11 9 10 19 19 14 8 4 5 5 4 3 5 5 2 2 5 6 6 5 4 5 4 5 9 6 3 2 6 7 7 7 5 6 4 0 1 4 5 2 1 6 6 5 5 4 8 9 7 9 13 12 7 4 4 3 6
25 25 23 19 16 23 27 20 26 33 28 29 28 21 22 24 16 7 3 1 3 4 4 8 9 10 12 15 13 5 6 8 4 8 18 16 12 6 3 6 8 7 3 4 5 2 2 3 6 7 5 4 3 1 2 5 3 4 5 7 7 6 6 5 5 4 2 2 4 5 2 1 5 7 4 3 1 6 7 6 7 9 11 10 10 11 12 14
26 25 23 20 20 26 24 18 25 29 25 30 28 21 24 21 11 5 2 3 3 3 4 8 9 9 12 10 3 1 4 2 4 12 13 9 9 6 7 8 8 8 4 6 4 1 1 1 1 3 3 5 5 4 4 3 5 9 7 7 7 6 5 4 3 4 3 2 6 5 2 0 3 6 4 1 2 5 3 4 7 7 11 13 14 16 17 17
28 27 24 23 26 28 22 19 27 28 26 29 27 24 23 12 4 4 5 3 3 2 3 4 4 7 13 11 4 2 2 2 4 12 8 4 6 6 8 7 4 5 3 3 2 3 3 3 0 1 2 6 7 6 7 6 6 7 4 5 5 4 4 4 4 3 2 4 6 4 3 1 3 5 3 3 5 5 3 3 5 6 8 11 13 14 14 15
25 28 26 27 29 28 21 22 29 28 27 29 28 26 18 5 1 5 4 3 3 3 4 5 4 6 12 11 6 4 3 2 3 7 5 4 5 5 5 5 4 4 1 3 2 3 2 1 1 1 2 4 6 5 5 4 3 5 5 6 5 2 3 2 3 1 2 5 4 2 2 2 5 7 6 7 8 6 7 8 8 8 9 8 8 8 10 12
21 29 31 30 30 27 21 23 29 30 29 30 29 21 9 2 7 7 4 2 2 2 4 5 3 5 11 9 5 4 3 2 4 4 3 3 5 4 2 2 6 5 3 5 4 2 1 4 2 2 2 5 5 5 4 1 0 4 6 6 4 3 2 2 4 2 3 4 3 3 2 2 5 6 9 11 9 6 8 9 9 11 13 12 8 3 5 8
20 31 34 29 27 24 18 22 30 30 31 33 25 12 5 6 8 5 6 5 1 2 2 4 6 7 8 6 5 6 3 1 4 4 2 4 6 5 4 4 4 5 4 4 3 5 4 4 4 3 2 5 4 3 6 6 3 3 3 5 5 5 5 4 4 3 4 2 3 3 2 3 3 2 6 10 9 8 10 12 13 13 13 13 9 1 4 6
21 27 30 25 23 20 16 24 30 28 34 32 16 6 8 10 6 4 7 5 1 2 3 4 8 8 5 1 1 5 2 1 4 4 3 5 6 8 7 6 6 4 6 5 3 3 4 4 4 2 0 6 5 3 5 6 3 2 2 5 3 4 5 3 3 5 3 0 2 2 3 4 3 5 8 6 7 9 10 11 14 12 10 8 4 2 6 8
24 24 25 22 22 19 17 26 29 28 33 25 8 7 10 6 3 4 6 5 4 6 7 4 4 5 4 1 1 5 1 2 4 3 4 4 3 6 6 5 7 6 5 6 3 2 3 3 4 4 2 2 2 2 3 3 3 2 2 3 4 4 7 6 2 0 3 1 3 1 4 5 3 6 8 4 5 6 4 6 8 6 4 3 3 5 9 11
29 26 25 23 21 19 19 26 28 30 30 17 7 9 5 1 4 4 4 6 8 10 10 5 1 4 6 3 5 8 3 3 4 3 4 3 2 6 7 4 7 9 6 4 2 3 5 1 3 2 2 2 2 4 5 4 3 4 3 5 4 3 5 5 2 3 4 2 4 1 4 5 2 3 6 5 4 7 5 3 2 1 2 5 7 9 12 14
33 30 27 24 21 19 21 23 26 30 24 10 8 9 1 1 3 3 4 7 9 7 6 5 3 3 6 6 6 8 6 5 6 4 4 4 4 7 9 5 6 11 10 4 1 2 5 3 3 2 2 2 3 4 4 5 5 4 5 4 4 3 2 2 2 1 1 2 4 4 3 3 4 5 4 3 5 8 7 2 1 2 6 9 10 13 16 18
29 27 21 22 23 22 20 20 24 27 16 7 10 8 1 2 2 2 7 8 7 6 4 5 3 1 5 6 6 8 7 6 8 6 5 5 5 6 11 8 4 9 13 7 3 2 4 4 2 2 1 1 3 1 5 2 4 4 4 3 2 3 4 2 2 4 3 3 3 4 4 3 6 6 5 7 8 8 7 4 4 8 12 13 13 17 20 21
18 14 9 15 23 23 23 22 21 18 9 6 8 5 1 2 1 3 7 7 3 3 4 5 3 3 4 3 3 6 5 5 8 7 4 6 5 4 8 10 5 8 11 7 4 3 3 3 3 2 3 1 2 3 6 7 3 3 4 4 2 2 2 2 1 2 4 4 3 2 3 5 6 5 7 9 8 6 6 5 8 13 15 15 17 21 22 20
10 6 3 11 16 20 27 22 13 9 5 2 3 2 1 3 3 4 6 5 2 2 3 4 4 5 5 4 3 5 4 3 6 6 3 5 6 4 8 11 9 10 8 4 3 4 2 3 4 2 0 3 3 3 3 5 6 6 5 6 6 4 4 3 2 1 3 3 4 3 3 7 6 4 5 6 6 6 8 8 10 14 15 15 19 23 20 16
6 3 3 8 9 16 25 15 3 4 3 2 3 3 3 3 4 4 4 3 2 2 3 3 3 3 4 4 4 5 6 4 5 6 4 6 8 5 7 12 16 17 11 4 3 3 3 4 4 2 4 5 2 3 2 2 2 4 3 4 6 5 5 6 6 4 2 1 2 3 2 7 6 3 4 6 6 7 8 14 17 16 16 17 20 21 16 12
4 3 3 7 8 14 18 6 1 4 2 1 3 3 3 4 3 3 3 2 2 2 2 2 2 3 3 3 4 6 8 5 5 7 4 4 6 3 5 14 19 17 10 4 3 3 3 4 4 0 3 3 4 4 3 3 2 2 3 3 5 4 3 5 5 4 4 3 3 3 2 7 6 3 4 6 7 6 9 17 21 19 17 18 19 16 11 9
5 3 3 5 7 11 10 2 3 6 2 1 3 3 2 2 3 4 4 3 2 2 3 2 2 3 3 3 5 7 9 5 5 7 4 2 4 3 7 17 19 13 8 7 8 9 6 3 4 3 2 3 3 3 3 3 1 4 4 3 5 4 6 5 2 4 2 5 7 5 4 7 6 4 3 2 1 5 10 15 18 19 19 19 16 10 6 7
5 2 1 3 7 8 4 1 1 3 3 4 4 3 3 2 1 3 4 3 2 3 3 2 2 3 3 3 4 4 7 4 3 5 3 2 2 1 4 13 16 11 5 6 11 14 8 3 5 7 6 6 6 5 4 3 3 3 2 4 5 6 8 5 3 4 4 5 7 6 6 6 5 5 3 2 2 5 8 10 13 17 19 16 11 5 4 7
5 2 1 3 6 7 3 2 2 1 3 6 4 4 4 2 1 2 4 3 2 2 3 1 3 4 2 4 5 4 7 2 2 4 5 4 3 1 1 7 11 9 3 5 15 15 4 1 6 8 10 12 10 7 4 6 6 4 4 6 6 7 9 6 5 4 6 3 4 8 9 6 5 5 3 4 6 7 8 11 13 15 16 12 7 2 4 6
3 2 2 3 3 4 4 5 5 1 2 5 4 4 6 4 1 2 3 2 3 4 2 2 2 3 4 7 6 5 7 3 1 3 4 3 2 2 2 3 6 7 3 7 14 11 4 3 8 9 12 11 6 5 5 7 9 10 9 10 9 10 10 9 8 11 6 5 6 11 8 8 9 6 7 8 8 7 9 15 18 14 11 10 6 2 5 6
3 2 4 4 2 2 2 5 8 4 1 2 1 3 7 7 4 4 3 0 1 4 2 1 2 4 6 8 6 4 6 4 2 3 2 1 2 1 3 3 1 4 4 5 8 6 4 6 7 7 11 10 4 5 6 7 8 9 11 13 13 13 13 13 15 16 9 7 14 10 10 11 12 8 9 11 11 13 16 21 20 12 8 8 6 5 6 7
3 2 4 5 3 2 3 8 11 7 3 3 1 2 7 10 8 5 3 2 0 2 3 3 4 4 4 4 3 5 7 5 4 4 3 2 3 3 2 1 0 2 4 4 3 3 3 4 4 7 9 10 5 6 6 7 7 6 9 13 14 15 17 17 18 19 15 14 16 8 9 14 12 9 11 14 16 18 15 16 17 14 11 9 6 6 6 6
3 2 4 5 3 3 6 11 11 6 4 5 3 2 5 8 9 5 3 4 4 2 3 4 3 3 4 3 4 3 4 3 4 6 6 5 3 2 3 4 3 2 3 3 2 2 3 3 2 6 4 8 4 6 6 7 7 6 7 9 11 13 15 17 18 18 13 12 14 7 5 12 8 9 13 16 15 13 9 12 17 18 14 9 6 6 6 6
4 3 5 5 2 2 5 7 6 5 4 4 4 3 4 7 7 4 1 2 5 4 5 6 4 3 3 2 3 2 2 4 6 7 7 6 5 4 2 3 5 5 4 4 3 3 4 2 2 5 4 6 3 7 7 3 3 2 5 7 11 13 13 15 14 11 9 11 12 9 9 12 6 10 13 13 11 11 14 17 21 19 14 10 9 8 8 8
8 4 4 4 1 2 3 2 4 5 4 5 6 4 4 6 6 5 2 2 3 6 7 9 7 4 2 3 4 5 10 14 14 14 14 12 10 10 8 5 5 6 6 5 3 2 5 5 2 4 5 4 2 5 7 6 4 3 8 12 16 15 13 11 8 8 11 12 10 10 12 11 5 10 10 7 7 12 18 21 20 17 14 11 10 8 8 9
Wind_Direction
192 190 193 193 192 192 188 186 186 187 189 190 192 195 198 200 200 201 206 211 216 221 223 224 222 220 216 212 210 210 215 219 220 218 221 225 224 225 224 215 207 201 203 204 201 195 186 174 169 164 160 150 139 151 149 147 153 137 105 99 174 193 203 188 181 190 159 231 219 188 183 172 196 202 189 186 190 196 191 197 208 210 210 210 205 200 201 198
187 189 196 197 194 190 189 187 185 186 189 190 193 195 198 200 201 205 210 214 218 220 218 213 209 208 207 204 204 208 216 220 221 221 221 222 220 220 219 208 203 202 200 201 198 194 188 173 165 160 151 140 133 155 157 150 149 118 95 122 214 204 209 195 180 186 163 344 190 180 185 182 199 187 178 193 200 185 188 207 216 219 218 217 214 209 213 205
189 192 194 196 195 191 189 187 184 187 189 190 193 195 198 200 203 207 210 213 213 210 204 198 198 202 201 200 202 207 215 221 225 225 219 215 216 216 213 204 199 200 197 197 192 189 190 175 164 158 147 133 133 159 161 152 158 119 105 142 237 215 223 222 199 195 194 220 170 171 186 194 206 182 180 198 188 188 203 209 211 219 221 216 215 215 213 206
192 196 196 195 194 191 186 184 184 188 189 191 193 195 199 200 203 205 206 205 201 196 191 191 196 200 201 200 198 204 212 224 233 226 215 211 214 210 207 202 199 201 194 189 184 182 184 173 163 158 144 123 120 155 165 165 177 160 135 179 234 194 193 234 213 232 217 211 183 170 169 199 206 186 191 179 149 245 234 218 218 225 224 215 214 216 211 204
192 196 198 196 191 188 184 182 183 186 189 191 193 195 196 197 199 197 195 193 189 188 188 191 197 201 202 198 194 198 197 212 240 223 212 210 209 205 202 200 200 200 188 184 182 178 178 171 161 152 139 114 118 140 184 174 160 150 177 242 210 165 153 232 206 256 222 196 177 162 157 190 191 191 204 185 175 234 242 234 232 237 234 224 221 219 210 203
192 194 196 195 188 185 184 182 180 184 188 188 188 188 189 190 191 188 187 187 186 188 189 193 197 201 200 194 192 192 187 186 255 212 206 208 203 199 197 196 200 196 186 185 181 176 173 168 159 148 131 105 139 143 174 174 162 161 246 274 182 166 140 146 203 252 187 173 165 163 175 186 175 200 220 209 221 230 247 266 242 241 236 229 228 223 216 209
196 198 195 192 188 185 183 182 181 183 184 182 181 182 183 185 185 184 186 187 189 190 191 194 196 199 195 191 193 193 199 222 301 196 197 201 198 195 194 196 199 194 188 185 182 177 171 167 160 149 128 94 158 155 141 167 164 139 177 233 185 190 257 123 179 168 159 171 169 167 179 185 183 204 230 229 237 238 239 258 262 248 231 225 226 226 228 224
200 201 197 192 189 185 182 181 181 181 179 178 178 180 181 183 183 184 186 188 192 193 193 194 195 196 190 190 194 196 210 223 283 193 190 192 193 191 194 198 198 195 190 188 186 179 171 167 161 151 135 111 163 157 139 149 137 119 169 195 175 175 183 141 101 139 151 168 167 166 170 191 209 216 253 249 248 246 241 244 256 263 234 223 225 229 232 230
198 196 194 192 191 188 184 180 179 180 179 178 179 181 182 183 184 185 188 190 192 194 194 194 195 193 187 191 193 197 214 215 236 201 188 186 189 190 195 198 197 194 189 188 188 183 177 169 167 160 153 163 151 150 150 145 233 208 166 166 159 139 147 153 141 125 132 150 158 172 155 100 207 245 269 261 262 254 244 243 245 253 247 227 224 229 231 232
194 191 190 191 193 193 188 182 179 179 180 180 181 182 183 184 186 187 188 189 191 194 195 195 195 190 187 191 188 192 213 210 224 207 187 185 188 191 194 192 192 192 191 189 185 187 184 176 176 163 137 160 146 137 156 151 223 180 140 127 121 111 110 131 167 134 128 133 144 184 191 349 144 189 259 260 285 256 239 238 238 241 246 238 228 229 230 234
192 192 191 191 192 192 190 186 182 181 182 183 183 184 185 186 188 189 188 188 191 193 195 196 193 188 188 191 188 192 208 206 216 205 188 186 189 190 186 183 184 186 191 190 185 187 186 183 178 166 131 160 148 128 157 161 156 145 132 111 49 51 99 49 129 152 132 122 119 154 211 310 111 184 240 234 283 299 232 229 231 232 236 240 233 228 229 233
188 189 190 191 190 188 188 187 186 185 185 185 185 186 188 189 190 190 187 188 191 192 195 195 191 188 188 194 199 201 204 204 209 200 188 187 188 185 179 176 176 178 185 187 184 183 185 185 179 178 161 150 147 121 152 150 128 130 127 127 352 11 30 356 37 171 154 122 128 103 348 298 228 228 239 229 236 264 236 223 227 229 233 237 237 233 231 234
185 186 189 189 188 187 186 187 187 187 188 188 188 188 189 191 192 190 186 188 191 191 193 193 189 186 185 195 207 206 207 207 206 197 188 187 185 181 178 175 171 168 171 176 180 176 176 179 183 183 156 144 142 119 132 118 115 124 95 123 14 9 346 323 6 189 159 140 165 121 278 279 262 245 237 228 230 238 241 226 223 227 232 236 239 240 241 242
185 186 188 188 188 188 187 187 187 187 189 190 190 190 191 192 193 191 186 187 192 190 190 190 185 183 187 199 212 210 211 206 203 198 188 187 184 180 180 179 172 164 163 165 173 174 164 163 177 173 144 139 133 119 107 58 79 110 67 71 61 123 263 307 346 170 149 178 196 129 216 264 271 270 243 241 246 246 247 237 227 229 234 239 242 243 246 247
186 189 188 189 190 189 189 189 188 188 189 190 190 191 191 191 192 189 185 187 191 190 188 186 182 179 189 209 216 211 211 208 203 197 188 186 185 183 183 183 178 171 167 164 170 175 163 156 164 146 121 129 128 115 62 19 36 40 109 306 344 166 255 311 348 155 153 195 154 124 219 271 271 279 307 257 254 245 249 248 243 244 244 245 245 245 248 250
184 190 190 190 190 190 191 189 189 190 189 188 189 190 191 192 192 187 183 184 189 188 184 182 181 175 178 211 212 211 210 208 201 195 190 186 186 186 184 184 184 182 176 169 172 175 167 152 139 120 116 129 125 103 61 43 357 1 110 193 255 176 264 313 340 327 96 148 24 108 222 264 289 283 214 84 356 290 266 262 251 251 252 250 247 246 249 251
186 191 192 191 191 192 191 189 189 189 188 187 186 188 190 190 191 187 179 179 184 183 179 179 177 178 206 216 208 211 206 203 198 194 189 185 187 188 186 183 181 185 178 169 172 170 163 147 134 123 103 106 105 98 92 7 259 294 50 122 215 192 205 281 292 323 26 108 256 14 239 247 276 290 267 259 292 302 294 285 277 270 264 257 250 247 247 250
192 195 195 193 193 192 191 189 188 189 188 185 183 184 185 186 190 186 177 174 172 166 170 175 165 170 236 219 206 202 199 199 196 191 187 184 185 185 185 182 178 175 162 154 165 162 153 129 121 127 58 71 125 121 145 211 195 187 175 143 210 207 204 244 247 284 18 68 222 324 279 264 275 286 279 274 280 285 284 283 283 279 272 266 259 255 255 257
196 198 198 195 194 192 191 189 187 188 187 183 179 176 174 174 177 178 173 167 161 153 164 183 173 154 249 204 195 191 192 194 192 188 184 181 181 182 181 178 175 166 150 140 160 158 137 100 98 132 146 160 188 170 177 196 171 170 175 147 161 178 227 241 242 271 30 112 237 238 244 272 279 285 284 280 281 281 281 282 280 277 272 266 262 259 259 260
197 201 201 197 196 193 190 188 187 187 186 183 175 166 161 157 149 164 174 168 166 162 124 187 185 183 22 177 182 182 182 184 188 185 180 180 179 176 169 163 162 155 147 144 159 155 121 129 169 187 186 188 193 166 145 156 140 139 132 115 148 171 242 252 262 302 35 140 251 253 258 277 274 275 278 280 287 286 278 277 274 271 267 264 263 262 262 261
196 200 202 199 197 194 191 188 186 185 185 183 174 167 167 166 155 167 175 174 182 182 342 190 189 205 1 168 175 176 173 171 182 183 178 181 177 170 164 158 148 135 165 135 117 110 115 165 211 208 186 170 159 131 111 103 91 100 132 135 147 187 231 255 270 317 6 130 266 358 326 277 266 270 272 275 283 273 266 265 266 267 266 265 264 264 264 263
196 200 201 199 197 195 193 188 186 184 183 183 177 173 180 179 178 183 173 172 196 195 276 199 190 205 309 169 174 173 169 158 173 183 178 176 175 175 169 153 139 142 166 114 106 106 144 215 229 192 140 109 94 95 99 94 90 88 118 132 155 209 233 292 315 332 10 41 268 347 336 278 265 265 265 265 262 262 263 261 263 267 267 267 266 266 266 266
198 201 200 198 195 195 194 188 186 183 183 185 180 175 180 181 184 187 174 152 188 196 239 194 189 201 188 168 177 174 168 155 166 180 178 175 175 176 166 146 130 138 146 156 145 146 176 253 235 158 133 114 92 75 96 89 84 93 109 134 179 233 168 217 285 329 8 54 276 295 299 281 280 285 276 267 260 265 268 264 263 263 264 267 268 268 268 266
201 202 203 198 192 195 193 188 185 182 184 186 182 178 179 180 180 176 167 89 133 191 220 189 187 199 194 172 179 180 174 166 171 178 179 177 172 167 165 148 124 134 168 173 152 157 200 276 162 138 135 130 124 124 124 118 101 115 144 144 162 196 176 191 232 352 3 19 26 5 315 291 308 319 290 289 287 276 278 273 267 263 262 267 269 267 265 266
204 207 208 198 193 195 190 187 184 181 184 184 181 179 178 179 172 164 156 56 61 192 201 190 191 201 202 188 182 180 174 170 174 178 180 180 172 157 151 147 138 166 179 142 131 165 230 266 131 130 116 125 132 174 185 156 151 236 218 176 170 174 164 146 95 81 40 359 357 25 349 289 314 313 271 306 341 307 304 294 282 283 279 274 272 269 267 268
206 210 211 205 199 189 182 186 185 181 183 184 180 178 178 176 165 161 152 39 272 218 157 182 189 194 198 194 174 163 163 189 180 179 179 180 178 161 142 139 97 161 165 131 128 173 211 111 114 125 129 130 137 191 209 158 135 201 232 176 148 133 131 132 118 96 101 241 324 48 120 265 311 301 269 318 338 309 312 308 300 309 306 286 276 272 269 270
206 211 213 211 204 188 180 185 187 182 183 183 178 174 176 172 160 159 138 28 259 181 142 172 177 183 189 179 168 158 158 178 164 176 178 178 182 169 160 168 78 134 163 126 145 226 126 114 86 104 116 122 147 203 213 152 135 206 233 131 124 121 133 142 110 94 191 234 330 14 110 230 294 273 274 332 332 307 315 313 314 331 330 305 283 274 267 259
205 212 215 212 209 194 182 186 190 183 180 179 175 171 172 167 159 155 123 52 209 139 136 176 168 178 179 168 172 167 141 156 147 177 180 176 180 166 164 190 144 139 148 128 178 258 97 150 172 144 119 140 178 226 195 141 123 239 210 114 120 123 124 118 94 91 13 359 312 317 50 198 269 275 304 343 310 295 309 299 306 334 350 359 354 308 238 175
208 215 218 209 203 192 184 190 193 183 177 175 173 169 165 161 152 131 101 177 173 107 130 165 161 174 168 161 175 167 135 153 135 166 172 170 177 162 127 168 138 113 68 94 164 226 58 173 191 149 139 181 191 323 148 126 107 174 144 94 79 73 78 80 88 100 48 30 244 268 354 182 265 287 312 0 267 262 281 280 295 339 17 45 62 76 97 108
212 217 218 204 189 184 186 193 187 179 172 172 173 166 155 153 141 122 189 210 156 100 124 154 166 171 156 149 171 126 126 139 115 139 151 157 162 137 109 128 121 105 45 35 95 214 339 68 133 116 146 169 133 66 48 68 131 142 116 72 60 36 36 49 55 83 65 319 252 257 308 89 267 284 269 232 225 214 235 301 311 351 36 52 62 77 89 95
210 214 212 197 186 182 184 187 180 172 166 168 168 159 148 138 110 153 198 191 119 101 111 143 172 158 157 162 171 162 94 33 133 141 144 144 140 125 115 122 99 83 43 28 58 321 3 74 84 54 127 130 106 63 44 65 113 115 89 90 82 6 10 26 2 39 98 254 261 271 297 152 211 264 255 252 261 226 205 266 288 319 8 35 53 70 85 94
203 202 195 185 183 181 180 181 174 163 160 163 162 157 146 114 211 198 197 148 144 185 171 175 201 171 169 168 158 160 122 91 172 154 146 145 152 161 153 168 156 103 166 195 163 334 24 102 295 40 171 164 118 75 46 19 29 72 98 109 95 9 11 359 312 349 210 240 271 285 270 195 229 253 260 264 263 242 234 235 246 286 315 350 29 58 83 99
188 181 176 177 179 178 177 176 169 159 157 158 158 152 126 125 206 204 197 184 197 194 149 149 156 154 161 158 158 167 118 137 189 162 137 138 160 197 243 188 151 125 183 180 135 139 248 306 312 104 219 217 160 126 134 241 233 127 138 132 129 128 105 255 263 287 257 256 297 286 267 261 263 264 252 248 245 234 245 248 257 286 303 313 322 357 100 105
168 166 168 173 175 174 175 175 168 159 156 156 154 141 121 195 201 174 177 208 270 47 80 114 114 128 154 159 182 175 117 151 178 131 111 131 153 196 227 218 169 103 111 142 147 168 182 268 231 166 196 188 175 170 156 145 136 167 160 130 145 157 153 204 217 205 234 270 308 297 273 195 203 268 251 247 261 257 248 253 260 274 296 310 315 286 153 123
162 163 166 166 171 173 172 176 171 161 158 156 147 148 187 203 205 160 176 195 195 63 43 85 118 137 165 48 205 193 144 178 176 122 145 167 174 192 191 200 196 137 129 159 199 172 172 244 256 303 234 155 164 202 138 112 111 230 123 108 161 183 140 132 179 174 170 322 307 267 242 212 206 284 277 262 280 273 254 251 253 262 287 298 294 170 157 144
161 161 166 166 172 171 168 175 172 164 164 157 143 194 201 205 198 180 170 147 143 133 101 81 95 137 171 56 217 225 275 114 158 144 179 195 205 197 190 197 192 182 168 161 165 160 164 252 312 356 18 95 139 180 126 114 168 166 123 170 214 167 114 110 190 69 78 203 267 218 248 289 322 292 295 312 293 291 279 243 233 247 290 259 192 140 139 138
163 163 173 178 174 169 170 174 171 169 169 162 175 203 197 128 171 172 143 125 138 138 125 138 166 153 172 173 192 203 192 122 154 167 182 198 235 194 193 215 189 192 202 156 163 201 155 152 331 33 84 352 20 102 68 40 104 124 174 203 190 116 95 108 158 7 44 235 276 273 232 285 327 266 316 339 280 276 274 230 195 187 111 124 132 123 125 126
172 172 180 185 181 174 171 171 171 171 169 168 207 213 166 122 189 171 146 136 134 134 136 163 169 151 175 184 190 188 180 168 172 180 175 192 243 195 177 198 191 190 198 157 134 208 136 127 318 21 130 303 354 95 89 18 42 115 170 164 121 134 156 95 136 166 128 232 279 300 267 253 203 221 297 292 229 244 248 217 113 167 136 121 122 123 123 120
172 171 172 179 180 175 171 171 171 169 167 186 211 217 181 145 215 186 159 146 130 131 159 180 162 118 176 178 174 178 188 183 170 178 182 185 233 205 176 185 191 187 188 162 144 192 128 132 237 317 276 290 14 119 187 208 25 55 109 117 84 128 161 160 151 165 176 196 249 310 321 259 227 218 214 217 218 226 220 179 178 184 149 128 124 122 119 114
163 158 151 169 173 173 173 171 167 167 180 212 200 200 165 140 181 188 166 158 132 116 167 188 156 143 168 164 157 173 190 186 171 183 202 186 205 232 195 187 169 172 175 146 128 165 116 138 189 312 333 211 185 217 195 178 152 104 124 161 176 77 118 158 107 118 139 161 188 270 297 271 250 207 197 216 224 224 211 186 187 177 148 129 125 121 115 107
154 137 139 167 170 171 167 162 164 178 199 224 169 160 181 155 146 169 171 163 120 70 133 154 143 151 158 151 167 174 162 162 179 189 208 196 202 225 207 190 160 149 152 123 141 172 143 155 163 136 224 197 217 257 214 181 172 162 170 181 174 146 122 147 245 240 123 146 168 176 263 272 254 205 206 224 223 226 212 180 169 166 149 133 125 121 113 97
151 110 153 167 174 172 163 154 157 184 180 190 162 140 138 135 132 156 166 152 111 64 91 113 119 148 164 164 163 163 157 160 189 194 208 214 207 208 206 185 159 151 153 142 159 162 116 109 120 143 213 209 241 289 241 211 150 141 186 190 170 163 140 153 209 220 124 133 142 119 263 272 261 219 213 237 252 250 205 162 153 159 154 138 128 120 108 84
143 77 121 157 168 169 161 151 221 174 181 202 145 98 108 128 124 144 166 168 128 88 92 126 151 161 179 172 146 163 174 173 190 198 210 221 209 211 194 171 158 155 157 149 154 150 121 111 120 133 301 310 329 344 10 24 62 147 235 188 165 188 153 148 183 169 146 181 145 91 277 267 273 270 242 252 262 244 186 159 154 158 155 143 132 122 104 70
140 90 106 159 174 172 162 171 206 181 179 113 110 86 102 126 129 146 169 189 166 137 139 160 177 168 173 151 141 174 187 182 200 206 202 201 202 199 176 171 167 163 170 181 177 173 179 161 131 125 26 354 344 347 337 319 232 201 227 193 176 153 101 102 120 108 157 208 162 147 237 252 272 308 331 318 224 185 176 164 159 160 157 149 138 126 99 63
145 117 89 148 174 183 173 101 162 158 140 129 136 151 130 83 134 157 152 156 158 150 150 171 156 123 130 133 113 164 188 175 182 192 184 204 212 111 161 181 183 178 184 190 168 163 176 187 150 156 176 193 203 212 220 217 188 196 204 180 178 147 137 155 127 117 222 225 159 174 232 250 284 319 353 75 138 184 191 181 170 167 166 160 148 129 65 48
151 157 110 130 160 177 174 153 145 111 152 157 163 176 156 135 213 157 134 142 170 137 103 112 144 105 103 147 128 166 198 192 65 168 179 191 213 336 101 185 191 189 176 157 159 154 140 213 187 189 202 204 200 201 173 125 141 193 183 161 168 168 170 160 112 167 209 164 167 221 228 226 253 278 261 199 188 200 205 203 198 185 176 174 172 147 26 24
147 175 174 140 144 159 163 176 176 186 212 180 173 178 168 155 143 159 164 183 186 167 102 33 154 153 167 167 154 179 196 185 87 157 161 164 191 340 28 118 173 187 165 151 163 149 91 214 204 204 220 220 186 177 176 138 161 191 175 164 175 178 176 169 187 214 187 121 233 236 203 214 238 228 222 220 207 211 214 208 204 190 175 184 204 292 354 353
146 156 173 169 165 168 173 176 169 165 245 216 155 158 169 170 168 174 185 133 167 182 164 27 230 205 183 171 160 163 171 174 202 184 132 138 157 62 38 44 111 177 153 146 168 145 120 208 208 193 224 236 170 160 191 165 173 190 178 179 182 175 180 188 209 221 185 177 239 224 161 208 232 207 212 219 202 204 210 207 202 193 192 211 241 304 332 333
136 127 164 171 168 143 136 148 153 154 176 183 151 147 173 184 187 174 135 107 159 228 179 189 231 207 181 175 146 154 170 177 202 200 161 138 140 109 97 73 61 182 151 136 171 160 149 211 200 170 220 244 197 165 194 178 177 194 187 188 183 179 190 196 211 223 207 211 239 215 168 221 227 191 213 223 208 206 206 201 204 212 227 241 266 298 314 320
143 130 151 153 132 111 137 147 151 156 169 179 207 211 176 189 191 173 145 151 162 209 191 187 201 164 152 133 111 152 201 177 180 195 174 155 170 180 182 183 167 153 151 147 165 181 179 219 167 139 206 256 203 164 196 190 184 204 206 198 187 188 201 206 215 223 212 223 246 236 224 254 234 174 210 228 220 216 214 213 222 230 240 254 271 281 292 298
174 120 120 133 125 140 159 156 151 159 174 186 201 184 171 201 194 162 173 184 161 169 169 161 152 113 110 131 135 175 174 110 121 145 138 136 155 153 158 178 157 146 160 164 144 148 174 204 59 107 181 255 217 168 180 140 98 250 246 212 195 196 207 214 218 217 200 213 236 237 244 258 221 164 203 227 219 219 230 233 237 242 247 258 269 271 273 274
194 156 119 119 115 168 177 161 154 171 187 185 188 180 172 199 191 158 181 262 207 186 165 154 151 119 114 209 203 148 119 104 100 98 90 82 84 85 80 84 109 134 156 156 133 140 161 160 126 141 181 262 295 151 142 97 80 262 245 216 204 204 210 217 226 227 213 206 212 220 233 245 196 160 189 210 197 213 227 231 235 239 242 249 255 250 244 242
Height
1449 1451 1453 1454 1456 1457 1459 1462 1464 1467 1470 1472 1475 1478 1481 1484 1486 1488 1490 1493 1496 1498 1500 1501 1502 1503 1504 1506 1507 1509 1511 1511 1511 1511 1510 1511 1513 1514 1514 1515 1516 1516 1517 1518 1518 1519 1519 1519 1519 1520 1522 1524 1526 1528 1529 1530 1532 1533 1537 1542 1544 1548 1545 1540 1542 1540 1539 1539 1539 1540 1540 1542 1543 1543 1544 1545 1546 1546 1546 1545 1545 1546 1546 1547 1548 1549 1549 1550
1447 1449 1451 1453 1454 1456 1458 1460 1463 1466 1468 1471 1474 1476 1480 1482 1485 1487 1489 1492 1494 1497 1498 1500 1501 1502 1503 1505 1507 1509 1510 1511 1510 1508 1509 1511 1512 1512 1513 1514 1515 1515 1516 1517 1518 1518 1518 1518 1518 1519 1521 1524 1527 1528 1529 1530 1532 1534 1540 1543 1543 1544 1540 1536 1538 1536 1537 1538 1538 1540 1541 1541 1542 1543 1544 1545 1545 1545 1545 1545 1545 1545 1546 1546 1548 1548 1548 1549
1446 1448 1450 1451 1453 1455 1457 1460 1462 1465 1467 1470 1473 1475 1478 1481 1484 1486 1488 1491 1493 1495 1497 1498 1500 1501 1502 1504 1506 1508 1510 1510 1508 1506 1507 1510 1510 1511 1512 1513 1514 1515 1515 1516 1517 1518 1518 1517 1518 1519 1520 1524 1527 1528 1529 1530 1532 1534 1538 1540 1539 1539 1537 1536 1536 1536 1537 1537 1538 1540 1540 1542 1542 1543 1544 1544 1545 1545 1545 1544 1544 1544 1544 1546 1547 1548 1548 1548
1445 1447 1448 1450 1451 1453 1456 1459 1461 1464 1467 1469 1472 1474 1477 1480 1483 1485 1488 1490 1492 1494 1496 1497 1499 1500 1502 1504 1506 1508 1509 1510 1505 1504 1507 1508 1509 1510 1511 1512 1513 1514 1515 1516 1516 1517 1517 1518 1518 1518 1520 1524 1527 1529 1530 1531 1532 1534 1536 1538 1537 1537 1537 1536 1535 1536 1536 1537 1539 1539 1541 1542 1542 1543 1543 1544 1545 1545 1543 1541 1542 1542 1543 1545 1546 1547 1547 1548
1444 1445 1447 1449 1450 1453 1455 1457 1460 1463 1466 1468 1470 1473 1476 1479 1482 1484 1487 1489 1491 1493 1494 1496 1498 1500 1502 1503 1505 1507 1509 1509 1503 1502 1506 1507 1508 1509 1510 1511 1512 1514 1514 1515 1516 1516 1517 1517 1517 1518 1520 1523 1527 1529 1530 1531 1532 1534 1536 1536 1536 1537 1537 1536 1536 1536 1535 1537 1538 1539 1540 1541 1542 1543 1542 1543 1543 1542 1540 1540 1541 1541 1543 1544 1545 1546 1547 1547
1443 1444 1446 1448 1450 1452 1454 1456 1459 1462 1465 1467 1470 1473 1476 1478 1481 1483 1486 1489 1490 1492 1493 1495 1497 1500 1501 1502 1504 1506 1507 1505 1500 1500 1504 1505 1507 1508 1509 1511 1512 1513 1514 1515 1515 1516 1517 1517 1517 1518 1519 1523 1527 1529 1530 1531 1532 1533 1535 1536 1536 1536 1536 1536 1536 1535 1535 1536 1536 1538 1539 1540 1541 1541 1542 1541 1539 1539 1539 1540 1540 1541 1542 1543 1544 1545 1545 1547
1441 1443 1445 1447 1449 1451 1453 1456 1458 1461 1464 1467 1469 1472 1474 1477 1480 1483 1486 1488 1490 1491 1493 1494 1496 1499 1500 1501 1503 1505 1504 1501 1499 1500 1502 1504 1506 1507 1509 1510 1511 1512 1513 1514 1515 1515 1516 1516 1517 1518 1519 1523 1526 1528 1530 1531 1532 1533 1535 1535 1535 1536 1536 1536 1536 1535 1536 1536 1536 1537 1539 1540 1540 1540 1541 1539 1537 1538 1539 1539 1540 1540 1541 1542 1543 1544 1545 1546
1441 1443 1445 1446 1448 1450 1452 1455 1458 1461 1464 1466 1468 1471 1474 1476 1479 1482 1485 1487 1489 1491 1492 1493 1496 1498 1499 1500 1502 1503 1502 1500 1500 1500 1501 1504 1505 1507 1508 1510 1511 1512 1513 1514 1514 1515 1515 1516 1517 1518 1520 1522 1524 1528 1530 1531 1533 1533 1534 1535 1535 1536 1536 1536 1536 1536 1536 1536 1537 1538 1538 1539 1540 1540 1540 1537 1536 1538 1538 1539 1539 1540 1540 1541 1542 1542 1544 1545
1440 1442 1444 1446 1448 1450 1452 1454 1457 1460 1463 1465 1467 1470 1473 1476 1478 1481 1484 1486 1488 1490 1491 1493 1495 1497 1498 1499 1501 1502 1500 1499 1501 1501 1502 1503 1505 1507 1508 1509 1510 1511 1512 1513 1514 1515 1515 1515 1516 1517 1519 1522 1524 1527 1529 1531 1533 1532 1533 1534 1535 1536 1536 1537 1537 1536 1536 1537 1537 1538 1539 1540 1539 1540 1537 1535 1535 1536 1537 1537 1538 1539 1539 1539 1540 1541 1542 1543
1439 1441 1443 1445 1448 1450 1452 1454 1457 1459 1462 1464 1467 1469 1472 1475 1478 1480 1483 1485 1487 1489 1491 1492 1494 1496 1497 1498 1500 1500 1498 1499 1501 1501 1502 1503 1505 1507 1507 1509 1510 1511 1512 1512 1513 1514 1515 1515 1516 1517 1518 1521 1524 1527 1529 1530 1531 1531 1533 1534 1535 1536 1536 1536 1536 1537 1537 1537 1537 1537 1539 1539 1540 1541 1537 1533 1534 1534 1535 1536 1537 1538 1538 1538 1539 1540 1541 1542
1438 1441 1443 1445 1447 1449 1452 1455 1457 1459 1461 1464 1466 1469 1471 1474 1477 1479 1481 1484 1486 1488 1490 1492 1493 1495 1496 1497 1498 1498 1498 1500 1501 1501 1502 1503 1505 1506 1507 1508 1509 1511 1511 1512 1513 1514 1514 1515 1516 1516 1518 1521 1524 1527 1528 1529 1530 1531 1533 1535 1536 1536 1536 1537 1537 1537 1537 1537 1538 1537 1538 1539 1540 1539 1534 1533 1534 1533 1534 1534 1535 1536 1537 1538 1538 1539 1540 1541
1437 1440 1442 1444 1446 1449 1451 1454 1457 1459 1461 1463 1466 1469 1471 1474 1476 1479 1480 1483 1485 1487 1489 1491 1493 1494 1495 1497 1497 1497 1498 1499 1500 1501 1502 1503 1505 1506 1507 1508 1509 1510 1511 1512 1513 1513 1514 1515 1515 1516 1518 1521 1524 1527 1528 1529 1530 1532 1533 1535 1538 1537 1537 1537 1537 1538 1537 1537 1538 1538 1539 1538 1538 1535 1531 1533 1533 1533 1534 1534 1534 1535 1536 1537 1537 1538 1538 1539
1437 1439 1441 1443 1446 1448 1451 1453 1456 1458 1461 1463 1465 1468 1471 1474 1477 1478 1480 1482 1484 1487 1489 1491 1492 1493 1495 1496 1496 1497 1498 1499 1499 1500 1501 1503 1504 1505 1507 1508 1508 1509 1510 1511 1512 1513 1514 1514 1516 1517 1519 1521 1524 1526 1526 1529 1530 1532 1535 1536 1538 1539 1538 1538 1538 1538 1537 1538 1538 1539 1541 1537 1533 1531 1530 1532 1533 1532 1533 1533 1533 1534 1534 1535 1535 1536 1537 1538
1436 1438 1440 1443 1445 1447 1450 1452 1455 1457 1460 1463 1465 1467 1470 1473 1476 1478 1479 1482 1484 1486 1488 1490 1492 1493 1495 1495 1495 1496 1497 1498 1498 1499 1500 1502 1503 1504 1506 1507 1508 1509 1510 1511 1512 1513 1513 1515 1516 1518 1520 1522 1523 1525 1528 1531 1532 1535 1537 1539 1544 1543 1539 1538 1539 1538 1538 1538 1538 1540 1542 1535 1530 1530 1530 1531 1531 1531 1532 1532 1532 1533 1533 1533 1534 1534 1535 1536
1436 1438 1440 1442 1445 1447 1449 1452 1454 1457 1459 1462 1464 1467 1470 1473 1476 1478 1479 1481 1484 1486 1487 1489 1491 1493 1494 1494 1494 1496 1496 1497 1497 1498 1499 1501 1502 1503 1505 1506 1508 1509 1510 1510 1511 1513 1514 1515 1516 1518 1521 1522 1523 1526 1529 1533 1535 1539 1539 1542 1550 1546 1539 1539 1539 1539 1538 1538 1538 1540 1542 1536 1531 1529 1529 1530 1530 1530 1530 1530 1531 1531 1532 1532 1532 1533 1533 1534
1436 1438 1440 1442 1444 1446 1449 1451 1454 1457 1459 1462 1464 1467 1470 1473 1476 1477 1479 1481 1484 1485 1487 1489 1490 1492 1493 1493 1493 1494 1495 1496 1496 1497 1498 1500 1501 1503 1504 1505 1507 1508 1509 1511 1512 1513 1514 1516 1517 1520 1521 1523 1525 1526 1531 1537 1539 1542 1541 1541 1548 1545 1541 1540 1539 1540 1539 1539 1539 1539 1539 1535 1530 1529 1529 1530 1529 1530 1530 1529 1530 1530 1530 1530 1530 1531 1531 1531
1435 1437 1439 1441 1443 1446 1448 1451 1453 1456 1459 1461 1464 1467 1470 1473 1475 1478 1479 1480 1483 1485 1487 1489 1490 1492 1492 1491 1492 1492 1493 1494 1495 1496 1497 1499 1501 1502 1504 1505 1507 1508 1510 1511 1512 1513 1515 1516 1518 1520 1522 1525 1527 1526 1534 1541 1541 1543 1544 1543 1547 1547 1544 1541 1539 1540 1540 1539 1539 1540 1539 1534 1530 1529 1528 1529 1529 1529 1530 1529 1529 1529 1529 1528 1528 1529 1529 1529
1434 1437 1439 1440 1442 1445 1447 1450 1453 1456 1459 1461 1464 1467 1470 1473 1475 1477 1478 1480 1482 1485 1488 1489 1490 1493 1491 1488 1489 1490 1491 1493 1494 1495 1496 1498 1500 1502 1503 1505 1506 1508 1510 1511 1513 1514 1515 1517 1519 1521 1523 1526 1527 1526 1531 1538 1537 1539 1541 1540 1543 1547 1546 1543 1540 1540 1540 1539 1539 1541 1540 1534 1530 1529 1527 1527 1529 1528 1528 1528 1528 1527 1527 1526 1526 1526 1526 1527
1434 1436 1438 1439 1441 1444 1447 1449 1452 1456 1459 1461 1463 1466 1469 1472 1475 1478 1478 1479 1481 1483 1486 1485 1485 1487 1486 1483 1486 1489 1490 1492 1493 1494 1496 1498 1500 1502 1503 1505 1507 1508 1509 1511 1513 1514 1515 1517 1520 1522 1524 1526 1525 1524 1526 1530 1530 1532 1536 1536 1536 1538 1542 1543 1540 1540 1541 1540 1539 1540 1539 1535 1531 1529 1527 1525 1527 1527 1526 1526 1526 1525 1525 1524 1523 1523 1523 1524
1433 1435 1437 1439 1441 1443 1446 1449 1451 1455 1458 1460 1461 1464 1467 1470 1474 1478 1478 1477 1478 1479 1481 1481 1481 1482 1481 1481 1485 1487 1489 1491 1492 1494 1495 1497 1499 1501 1503 1505 1507 1508 1510 1511 1513 1514 1515 1518 1521 1521 1522 1523 1523 1526 1527 1530 1531 1532 1536 1537 1537 1537 1536 1539 1541 1541 1542 1539 1539 1541 1540 1537 1532 1529 1526 1524 1525 1525 1524 1523 1522 1522 1522 1521 1521 1520 1520 1520
1432 1434 1436 1438 1440 1442 1445 1448 1451 1454 1457 1459 1460 1461 1463 1465 1469 1473 1475 1477 1478 1478 1479 1479 1481 1482 1481 1482 1483 1485 1487 1490 1492 1493 1495 1497 1499 1501 1503 1505 1506 1509 1511 1512 1513 1514 1516 1519 1519 1518 1520 1522 1525 1529 1529 1531 1533 1534 1535 1536 1539 1540 1536 1538 1541 1541 1542 1539 1539 1544 1542 1536 1532 1528 1525 1523 1523 1522 1521 1521 1519 1519 1519 1518 1518 1517 1517 1517
1431 1433 1434 1437 1439 1441 1444 1447 1450 1453 1456 1458 1458 1460 1461 1463 1466 1468 1472 1475 1477 1478 1479 1479 1481 1481 1481 1482 1483 1485 1486 1489 1492 1493 1494 1496 1498 1500 1502 1504 1506 1509 1512 1512 1513 1517 1519 1518 1517 1519 1522 1524 1528 1530 1529 1530 1533 1534 1537 1537 1537 1541 1539 1539 1541 1542 1543 1539 1538 1543 1540 1532 1528 1526 1522 1520 1520 1517 1517 1518 1517 1517 1516 1515 1514 1514 1514 1514
1430 1431 1434 1436 1438 1441 1443 1446 1449 1451 1454 1456 1458 1460 1462 1464 1467 1469 1472 1475 1476 1478 1478 1478 1480 1481 1482 1482 1484 1485 1485 1487 1490 1492 1494 1496 1497 1499 1501 1503 1506 1510 1511 1511 1512 1518 1520 1517 1517 1520 1522 1523 1527 1530 1528 1530 1533 1535 1537 1535 1536 1542 1540 1537 1539 1542 1544 1543 1541 1542 1539 1530 1525 1523 1519 1517 1517 1515 1515 1515 1514 1514 1513 1511 1512 1511 1511 1511
1428 1431 1433 1435 1438 1440 1442 1445 1448 1450 1453 1455 1458 1460 1462 1464 1467 1470 1472 1475 1477 1477 1477 1478 1479 1481 1482 1483 1484 1485 1486 1487 1488 1490 1493 1495 1497 1499 1500 1503 1506 1509 1511 1510 1512 1514 1516 1517 1518 1521 1522 1522 1525 1530 1528 1527 1532 1536 1535 1532 1533 1537 1538 1537 1540 1542 1544 1545 1545 1541 1535 1527 1523 1521 1517 1515 1516 1514 1513 1513 1511 1511 1511 1510 1509 1508 1509 1509
1427 1430 1432 1434 1437 1438 1442 1445 1446 1449 1452 1455 1458 1460 1462 1464 1467 1470 1472 1476 1478 1478 1478 1478 1480 1480 1481 1482 1483 1485 1486 1487 1488 1490 1492 1494 1496 1498 1501 1502 1505 1508 1511 1512 1514 1514 1515 1518 1519 1520 1523 1523 1524 1528 1528 1526 1530 1535 1533 1530 1530 1530 1534 1538 1540 1541 1541 1542 1546 1545 1536 1527 1522 1519 1515 1514 1516 1512 1511 1512 1509 1508 1509 1508 1506 1505 1506 1507
1426 1429 1431 1434 1436 1438 1441 1443 1445 1449 1451 1454 1457 1459 1463 1464 1468 1470 1472 1479 1481 1477 1478 1479 1480 1480 1481 1482 1483 1485 1488 1488 1488 1489 1491 1494 1495 1496 1500 1503 1504 1508 1511 1513 1514 1516 1517 1520 1520 1520 1522 1524 1525 1526 1526 1527 1531 1533 1531 1531 1532 1531 1533 1536 1536 1537 1539 1541 1548 1550 1542 1535 1525 1516 1514 1517 1517 1512 1510 1511 1509 1507 1506 1505 1504 1503 1503 1505
1425 1428 1430 1433 1435 1436 1439 1440 1444 1447 1448 1453 1456 1459 1463 1464 1468 1469 1474 1490 1486 1472 1475 1478 1478 1478 1479 1482 1483 1485 1488 1487 1487 1490 1491 1493 1495 1496 1499 1502 1503 1506 1510 1512 1514 1516 1517 1520 1521 1521 1522 1524 1525 1525 1525 1527 1529 1531 1532 1533 1533 1531 1532 1535 1535 1537 1542 1544 1547 1548 1544 1542 1534 1520 1519 1523 1518 1511 1509 1510 1509 1507 1505 1503 1502 1501 1501 1503
1425 1427 1429 1432 1434 1435 1437 1440 1443 1444 1447 1453 1456 1460 1462 1464 1470 1468 1477 1495 1485 1467 1472 1476 1476 1477 1479 1481 1483 1484 1485 1484 1486 1490 1491 1492 1495 1496 1498 1501 1502 1505 1509 1510 1513 1516 1516 1518 1519 1519 1521 1523 1523 1523 1525 1525 1526 1531 1536 1537 1534 1534 1535 1537 1536 1539 1547 1547 1543 1545 1546 1545 1535 1521 1522 1525 1518 1512 1510 1510 1509 1507 1505 1503 1501 1501 1500 1502
1424 1426 1428 1432 1434 1436 1438 1440 1443 1445 1449 1453 1456 1460 1462 1466 1469 1470 1482 1489 1473 1464 1470 1472 1475 1478 1478 1481 1483 1483 1483 1484 1485 1488 1490 1492 1495 1495 1497 1501 1502 1506 1509 1508 1510 1515 1517 1517 1517 1517 1517 1519 1523 1527 1528 1525 1525 1532 1538 1537 1537 1540 1540 1541 1540 1540 1547 1547 1541 1545 1549 1544 1532 1518 1517 1522 1517 1514 1512 1510 1510 1508 1506 1504 1502 1502 1502 1503
1422 1424 1427 1431 1433 1435 1438 1439 1443 1447 1449 1452 1456 1460 1462 1466 1469 1478 1491 1481 1462 1465 1471 1470 1474 1476 1477 1481 1483 1484 1484 1485 1485 1487 1491 1493 1494 1496 1498 1501 1503 1506 1509 1510 1512 1515 1517 1517 1518 1518 1517 1519 1524 1528 1530 1528 1528 1532 1534 1533 1535 1539 1540 1542 1545 1544 1546 1547 1545 1553 1555 1548 1537 1520 1513 1517 1514 1512 1512 1510 1511 1508 1507 1506 1504 1504 1504 1504
1420 1423 1426 1429 1431 1434 1436 1440 1443 1446 1449 1452 1456 1460 1462 1467 1473 1482 1485 1467 1457 1468 1471 1471 1474 1474 1475 1478 1481 1484 1485 1486 1486 1487 1490 1493 1494 1496 1498 1501 1504 1508 1512 1513 1514 1517 1518 1517 1518 1519 1519 1520 1522 1526 1530 1531 1531 1531 1530 1531 1535 1540 1543 1544 1547 1547 1547 1547 1549 1560 1562 1553 1543 1523 1511 1514 1513 1513 1513 1510 1510 1509 1508 1508 1506 1506 1506 1506
1418 1421 1425 1428 1431 1434 1437 1440 1442 1446 1449 1451 1456 1459 1461 1472 1478 1474 1469 1458 1457 1466 1466 1468 1472 1472 1473 1474 1477 1482 1484 1486 1487 1486 1489 1491 1494 1495 1495 1497 1500 1508 1516 1515 1515 1518 1517 1517 1519 1519 1519 1520 1518 1524 1533 1534 1532 1531 1530 1532 1537 1545 1550 1548 1551 1555 1551 1549 1554 1563 1561 1552 1542 1522 1511 1512 1510 1511 1513 1510 1509 1509 1508 1509 1509 1509 1508 1508
1417 1420 1424 1428 1431 1434 1437 1440 1443 1446 1448 1451 1456 1457 1462 1475 1473 1461 1459 1458 1456 1459 1460 1463 1468 1470 1472 1474 1478 1481 1482 1485 1486 1487 1489 1490 1493 1495 1495 1495 1496 1500 1507 1513 1517 1518 1518 1519 1519 1518 1519 1518 1516 1520 1530 1532 1532 1530 1529 1531 1534 1546 1553 1552 1559 1564 1554 1550 1559 1566 1559 1546 1535 1520 1511 1509 1508 1510 1511 1508 1508 1508 1508 1509 1510 1510 1509 1509
1418 1420 1425 1428 1432 1435 1437 1439 1442 1444 1447 1451 1454 1458 1466 1469 1457 1450 1456 1458 1457 1459 1460 1462 1467 1471 1472 1473 1477 1477 1479 1485 1486 1486 1489 1491 1494 1496 1495 1496 1496 1495 1501 1512 1516 1516 1518 1518 1515 1515 1515 1516 1516 1517 1520 1523 1528 1530 1531 1530 1529 1535 1539 1542 1549 1547 1543 1550 1560 1563 1551 1532 1521 1514 1509 1508 1508 1510 1509 1508 1508 1507 1508 1508 1508 1509 1509 1509
1420 1423 1427 1430 1433 1435 1437 1439 1441 1443 1446 1449 1452 1460 1462 1454 1447 1448 1452 1454 1458 1461 1462 1463 1467 1472 1475 1475 1477 1475 1476 1483 1486 1487 1489 1490 1491 1491 1490 1491 1494 1494 1497 1506 1513 1514 1516 1514 1512 1515 1514 1513 1516 1517 1518 1519 1525 1533 1535 1531 1529 1526 1528 1544 1557 1553 1551 1553 1553 1553 1542 1525 1516 1509 1507 1509 1508 1508 1507 1507 1507 1507 1508 1508 1506 1507 1508 1509
1421 1425 1428 1430 1432 1434 1436 1438 1440 1442 1445 1447 1453 1457 1449 1441 1444 1447 1446 1449 1455 1458 1462 1467 1469 1472 1477 1478 1478 1477 1475 1479 1485 1487 1488 1489 1488 1487 1486 1485 1489 1490 1488 1495 1506 1511 1513 1513 1515 1516 1515 1515 1516 1516 1518 1517 1521 1531 1533 1529 1530 1530 1529 1544 1562 1568 1564 1550 1542 1545 1534 1523 1520 1509 1503 1507 1506 1505 1507 1505 1506 1507 1507 1507 1505 1506 1507 1508
1421 1424 1427 1429 1432 1434 1435 1436 1439 1442 1444 1447 1450 1447 1440 1439 1443 1444 1443 1446 1451 1453 1458 1465 1468 1470 1473 1476 1477 1476 1474 1477 1484 1486 1487 1489 1486 1482 1484 1483 1484 1486 1484 1488 1496 1501 1505 1512 1518 1516 1515 1517 1517 1517 1519 1518 1518 1525 1528 1525 1529 1534 1532 1533 1543 1557 1562 1550 1540 1542 1534 1525 1524 1513 1503 1504 1503 1502 1504 1504 1506 1507 1505 1505 1506 1506 1508 1509
1419 1423 1426 1429 1431 1433 1434 1436 1438 1441 1445 1448 1445 1440 1439 1441 1442 1443 1443 1444 1447 1451 1453 1458 1463 1465 1467 1471 1473 1473 1472 1475 1481 1483 1484 1487 1481 1474 1478 1480 1480 1483 1484 1485 1490 1494 1497 1506 1518 1521 1518 1518 1518 1517 1519 1521 1521 1521 1521 1523 1525 1528 1531 1534 1537 1541 1549 1549 1539 1539 1542 1535 1525 1514 1502 1501 1501 1499 1501 1504 1506 1506 1505 1505 1506 1507 1508 1510
1417 1421 1425 1427 1430 1432 1433 1435 1438 1440 1445 1445 1440 1439 1440 1440 1441 1443 1442 1443 1445 1448 1451 1454 1458 1462 1465 1466 1467 1471 1471 1471 1477 1480 1478 1481 1478 1471 1472 1474 1477 1482 1483 1483 1487 1492 1495 1500 1513 1521 1520 1519 1519 1517 1516 1519 1523 1523 1522 1525 1525 1525 1528 1532 1536 1534 1535 1543 1541 1534 1533 1525 1516 1512 1503 1497 1499 1497 1498 1503 1505 1504 1505 1505 1506 1508 1509 1510
1417 1419 1423 1425 1427 1430 1432 1435 1438 1442 1443 1439 1435 1437 1439 1439 1441 1442 1441 1443 1444 1445 1448 1451 1454 1459 1463 1465 1466 1469 1470 1471 1474 1474 1472 1474 1474 1471 1470 1470 1473 1479 1483 1484 1486 1491 1495 1497 1506 1520 1523 1520 1517 1515 1512 1512 1518 1521 1522 1525 1526 1529 1532 1530 1535 1537 1532 1535 1540 1535 1525 1513 1507 1507 1501 1495 1498 1498 1498 1501 1503 1503 1503 1505 1507 1508 1509 1510
1417 1419 1422 1423 1424 1427 1430 1434 1437 1439 1438 1435 1434 1437 1438 1437 1440 1442 1442 1443 1443 1444 1446 1448 1451 1454 1458 1462 1463 1465 1469 1472 1473 1472 1470 1470 1469 1467 1467 1467 1469 1475 1481 1485 1486 1487 1493 1496 1505 1519 1521 1516 1513 1513 1514 1512 1513 1514 1514 1517 1518 1521 1528 1527 1531 1540 1537 1532 1536 1536 1526 1512 1502 1501 1500 1498 1499 1499 1499 1499 1501 1503 1503 1505 1506 1507 1508 1509
1418 1420 1422 1422 1423 1424 1427 1431 1435 1435 1435 1435 1434 1435 1436 1437 1439 1441 1442 1442 1443 1445 1446 1447 1450 1452 1454 1457 1459 1461 1465 1469 1471 1470 1467 1466 1465 1463 1464 1465 1467 1471 1475 1481 1483 1483 1489 1496 1505 1514 1515 1513 1514 1516 1517 1515 1513 1513 1512 1513 1514 1514 1516 1517 1521 1531 1538 1538 1541 1542 1531 1510 1499 1501 1502 1500 1500 1499 1499 1498 1500 1502 1504 1505 1506 1506 1507 1508
1419 1421 1422 1422 1423 1424 1426 1431 1434 1434 1434 1434 1434 1435 1436 1436 1438 1440 1441 1442 1443 1444 1445 1446 1448 1450 1451 1454 1456 1459 1461 1464 1467 1467 1463 1463 1464 1463 1464 1465 1466 1470 1473 1477 1481 1483 1487 1491 1500 1510 1513 1513 1513 1515 1516 1515 1515 1514 1513 1513 1514 1512 1510 1511 1516 1522 1528 1531 1534 1540 1533 1509 1497 1502 1501 1499 1500 1499 1499 1499 1499 1501 1503 1504 1505 1505 1506 1508
1419 1421 1422 1422 1424 1425 1427 1429 1429 1431 1434 1434 1434 1435 1436 1436 1437 1439 1440 1441 1442 1443 1444 1445 1446 1447 1449 1451 1453 1455 1457 1459 1462 1463 1462 1462 1462 1462 1464 1464 1465 1467 1469 1470 1473 1477 1482 1486 1494 1507 1515 1515 1515 1516 1515 1514 1514 1511 1509 1511 1511 1511 1513 1517 1520 1522 1523 1522 1522 1526 1522 1505 1498 1502 1500 1499 1500 1499 1499 1500 1499 1501 1503 1503 1505 1505 1506 1508
1420 1423 1423 1423 1424 1425 1428 1428 1427 1430 1433 1433 1434 1435 1436 1437 1437 1438 1439 1440 1441 1442 1442 1443 1444 1445 1448 1451 1452 1453 1454 1455 1456 1459 1462 1462 1462 1463 1463 1464 1465 1465 1465 1467 1467 1470 1478 1483 1486 1495 1505 1507 1507 1506 1500 1500 1507 1509 1507 1510 1510 1511 1513 1512 1516 1521 1519 1519 1521 1515 1507 1502 1500 1500 1499 1499 1501 1500 1500 1500 1500 1500 1501 1503 1504 1504 1505 1506
1420 1422 1423 1424 1424 1425 1427 1428 1428 1431 1432 1431 1433 1435 1435 1436 1437 1437 1438 1439 1441 1441 1441 1443 1444 1445 1447 1449 1451 1452 1454 1455 1456 1456 1458 1460 1462 1463 1463 1463 1465 1465 1466 1467 1467 1471 1477 1481 1480 1481 1485 1485 1484 1485 1485 1487 1498 1503 1504 1507 1509 1510 1510 1509 1515 1517 1512 1518 1522 1508 1499 1502 1501 1498 1499 1499 1499 1500 1499 1499 1499 1499 1499 1502 1503 1503 1504 1505
1419 1421 1421 1422 1424 1426 1427 1429 1429 1430 1430 1429 1431 1432 1433 1435 1437 1438 1438 1439 1440 1440 1441 1443 1443 1443 1445 1446 1448 1451 1452 1455 1457 1456 1458 1461 1462 1464 1464 1463 1465 1465 1466 1467 1468 1471 1476 1478 1479 1477 1476 1476 1476 1480 1483 1484 1488 1494 1498 1503 1506 1508 1508 1509 1510 1504 1503 1514 1514 1500 1499 1503 1499 1497 1498 1497 1497 1498 1497 1496 1497 1497 1498 1500 1501 1502 1502 1502
1418 1419 1419 1420 1422 1424 1425 1427 1428 1429 1430 1429 1429 1430 1432 1434 1435 1436 1437 1438 1439 1439 1440 1442 1442 1441 1442 1442 1444 1448 1452 1455 1456 1456 1459 1462 1463 1464 1464 1465 1466 1465 1466 1468 1468 1470 1473 1474 1476 1478 1477 1477 1479 1482 1484 1483 1483 1487 1493 1497 1501 1504 1506 1506 1503 1497 1499 1505 1496 1490 1499 1499 1493 1494 1494 1492 1494 1494 1492 1493 1494 1496 1497 1497 1499 1500 1499 1499
1417 1418 1419 1420 1421 1422 1423 1425 1427 1430 1430 1430 1431 1431 1431 1432 1432 1433 1435 1437 1439 1439 1439 1440 1441 1441 1443 1442 1442 1445 1449 1451 1452 1455 1458 1460 1462 1463 1463 1464 1466 1466 1466 1468 1469 1470 1471 1471 1474 1478 1477 1477 1481 1485 1484 1483 1483 1485 1490 1493 1496 1500 1500 1499 1496 1491 1493 1495 1487 1490 1498 1492 1486 1490 1489 1488 1490 1490 1490 1492 1493 1494 1495 1495 1497 1498 1497 1498
1416 1417 1418 1419 1421 1422 1423 1424 1427 1429 1430 1431 1432 1431 1430 1430 1431 1432 1433 1434 1437 1439 1438 1439 1441 1441 1443 1444 1443 1444 1446 1445 1446 1450 1454 1457 1458 1460 1460 1459 1461 1465 1467 1467 1469 1470 1470 1472 1475 1478 1478 1478 1481 1484 1485 1486 1485 1484 1488 1492 1495 1498 1498 1495 1491 1487 1492 1495 1491 1495 1500 1491 1484 1487 1488 1487 1489 1489 1490 1491 1491 1491 1493 1494 1495 1495 1496 1497
1416 1416 1417 1419 1421 1422 1423 1423 1425 1428 1430 1430 1430 1429 1430 1430 1430 1431 1432 1432 1433 1436 1437 1439 1441 1442 1443 1444 1444 1445 1447 1446 1445 1447 1449 1452 1453 1455 1456 1455 1457 1462 1464 1466 1468 1468 1469 1474 1477 1478 1478 1477 1479 1483 1487 1490 1491 1489 1489 1491 1493 1494 1492 1489 1486 1485 1489 1493 1492 1498 1499 1486 1480 1484 1487 1487 1488 1489 1489 1488 1488 1489 1491 1492 1493 1493 1494 1495
1415 1417 1417 1418 1420 1422 1422 1422 1423 1425 1425 1425 1426 1427 1428 1429 1429 1431 1433 1433 1432 1433 1435 1437 1439 1441 1443 1444 1444 1445 1446 1446 1447 1449 1451 1452 1453 1454 1455 1456 1457 1459 1461 1464 1466 1467 1469 1470 1473 1477 1477 1476 1482 1487 1487 1490 1495 1492 1484 1479 1481 1484 1483 1483 1485 1485 1484 1486 1489 1491 1485 1476 1477 1483 1485 1486 1487 1486 1485 1485 1486 1488 1489 1490 1490 1491 1493 1493